Location: Newark
(39.8500°N, 99.5772°W)
Time: 18:53:05
(UTC+00:00)

OTV 5 (USA 277) - Pass Details

Date: 28 August 2019
Orbit: 310 x 324 km, 54.5° (Epoch: 08 October)

Event Time Altitude Azimuth Distance (km) Brightness Sun altitude
Rises 02:11:18 0° 257° (WSW) 2,033 ? -10.6°
Reaches altitude 10° 02:13:33 10° 275° (W) 1,206 ? -11.0°
Maximum altitude 02:15:38 20° 327° (NNW) 799 ? -11.4°
Drops below altitude 10° 02:17:44 10° 19° (NNE) 1,207 ? -11.8°
Sets 02:19:59 0° 37° (NE) 2,037 ? -12.2°
